User: anonymous   Login
Location: Ústí nad Labem
(50.6611°N, 14.0531°E)
Time: 20:40:47
(UTC+02:00)
Language:

A-11 Canister half - Orbit

View from above orbital plane
View from above orbital plane
View from above satellite
View from above satellite

Ground track
Ground track

The orbit data is extracted from the following two-line orbital elements,

1 00051U 60009C   24109.00012951  .00000044  00000-0  12520-2 0  9995
2 00051  47.2144 334.3834 0108729   7.2485 352.9848 12.18326298834838
Epoch (UTC): 18 April 2024 00:00:11
Eccentricity: 0.0108729
inclination: 47.2144°
perigee height: 1513 km
apogee height: 1686 km
right ascension of ascending node: 334.3834°
argument of perigee: 7.2485°
revolutions per day: 12.18326298
mean anomaly at epoch: 352.9848°
orbit number at epoch: 83483

The dashed part of the orbit path shows where the satellite is in the earth's shadow,  

DLR